CAPE
nan nan nan nan nan nan nan nan nan nan nan nan nan nan nan nan nan nan nan nan nan nan nan nan nan nan nan nan nan nan nan nan 6 6 15 17 15 15 12 6 6 nan nan nan nan nan nan nan nan nan nan nan nan nan 3 16 16 31 78 90 90 97 119 168 168 242 287 317 292 292 232 121 8 8 nan nan nan nan 8 42 42 98 159 229 229 394
nan nan nan nan nan nan nan nan nan nan nan nan nan nan nan nan nan nan nan nan nan nan nan nan nan nan nan nan nan nan nan nan 7 7 19 20 19 19 14 7 7 1 nan nan nan nan nan nan nan nan nan nan nan nan nan 3 3 12 20 36 36 71 83 131 131 207 260 336 263 263 226 86 0 0 nan nan 0 0 39 89 89 131 215 302 302 481
nan nan nan nan nan nan nan nan nan nan nan nan nan nan nan nan nan nan nan nan nan nan nan nan nan nan nan nan 0 0 1 7 15 15 24 27 29 29 20 13 13 6 1 nan nan nan nan nan nan nan nan nan nan nan nan nan nan 0 1 4 4 14 22 38 38 79 123 148 99 99 78 12 nan nan nan nan 9 9 94 136 136 148 213 318 318 550
nan nan nan nan nan nan nan nan nan nan nan nan nan nan nan nan nan nan nan nan nan nan nan nan nan nan nan nan 1 1 17 26 36 36 40 41 39 39 32 21 21 13 7 1 1 nan nan nan nan nan nan nan nan nan nan nan nan nan nan nan nan nan 2 2 2 2 2 nan nan nan nan nan nan nan nan nan 7 7 60 119 119 119 124 199 199 449
nan nan nan nan nan nan nan nan nan nan nan nan nan nan nan nan nan nan nan nan nan nan nan nan nan nan nan nan nan nan 23 47 56 56 58 60 56 56 53 40 40 27 15 7 7 2 nan nan nan nan nan nan nan nan nan nan nan nan nan nan nan nan nan nan nan nan nan nan nan nan nan nan nan nan nan nan 5 5 35 71 71 104 89 133 133 392
nan nan nan nan nan nan nan nan nan nan nan nan nan nan nan nan nan nan nan nan nan nan nan nan nan nan nan nan nan nan 14 59 77 77 77 78 75 75 68 57 57 47 34 20 20 10 1 nan nan 0 0 1 1 1 0 nan nan nan nan nan nan nan nan nan nan nan nan nan nan nan nan nan nan nan nan nan 0 0 25 61 61 161 162 193 193 385
nan nan nan nan nan nan nan nan nan nan nan nan nan nan nan nan nan nan nan nan nan nan nan nan nan nan nan nan nan nan 5 45 84 84 88 88 91 91 81 58 58 56 51 37 37 20 7 1 1 nan 0 2 2 2 1 0 0 nan nan nan nan nan nan nan nan nan nan nan nan nan nan nan nan nan nan nan nan nan 7 99 99 220 252 265 265 346
nan nan nan nan nan nan nan nan nan nan nan nan nan nan nan nan nan nan nan nan nan nan nan nan nan nan nan nan nan nan nan nan nan nan 24 62 96 96 112 107 107 96 83 69 69 43 20 9 9 1 nan nan 3 3 6 3 3 nan nan nan nan nan nan nan nan nan nan nan nan nan nan nan nan nan nan nan nan nan nan 17 17 201 339 310 310 287
nan nan nan nan nan nan nan nan nan nan nan nan nan nan nan nan nan nan nan nan nan nan nan nan nan nan nan nan nan nan nan nan nan nan 5 15 35 35 89 113 113 118 103 77 77 55 33 14 14 5 0 nan 1 1 3 1 1 nan nan nan nan nan nan nan nan nan nan nan nan nan nan nan nan nan nan nan nan nan nan nan nan 103 262 303 303 279
1 nan nan nan nan nan nan nan nan nan nan nan nan nan nan nan nan nan nan nan nan nan nan nan nan nan nan nan nan nan nan 2 43 43 83 74 115 115 88 83 83 92 87 75 75 62 41 24 24 10 2 nan 0 0 0 0 0 nan nan nan nan nan nan nan nan nan nan nan nan nan nan nan nan nan nan nan nan nan nan nan nan nan 85 213 213 262
11 8 3 2 2 nan nan nan nan nan nan nan nan nan nan nan nan nan nan nan nan nan nan nan nan nan nan nan nan nan nan nan 7 7 54 82 98 98 107 94 94 82 78 62 62 52 40 26 26 15 4 nan nan nan nan nan nan nan nan nan nan nan nan nan nan nan nan nan nan nan nan nan nan nan nan nan nan nan nan nan nan nan nan 45 45 156
16 12 8 5 5 0 nan nan nan nan nan nan nan nan nan nan nan nan nan nan nan nan nan nan nan nan nan nan nan nan nan 0 29 29 40 47 60 60 70 61 61 70 69 65 65 41 36 27 27 18 4 nan nan nan nan nan nan nan nan nan nan nan nan nan nan nan nan nan nan nan nan nan nan nan nan nan nan nan nan nan nan nan nan nan nan 52
14 9 6 5 5 3 1 nan nan nan nan nan nan nan nan nan nan nan nan nan nan nan nan nan nan nan nan nan nan nan nan 19 67 67 65 53 41 41 41 45 45 30 24 17 17 16 29 26 26 13 3 nan nan nan nan nan nan nan nan nan nan nan nan nan nan nan nan nan nan nan nan nan nan nan nan nan nan nan nan nan nan nan nan nan nan 3
3 6 5 3 3 2 1 nan nan nan nan nan nan nan nan nan nan nan nan nan nan nan nan nan nan nan nan nan nan nan nan 49 78 78 84 88 64 64 58 61 61 53 29 7 7 10 13 15 15 8 3 nan nan nan 0 nan nan nan nan nan nan 0 nan nan nan nan nan nan nan nan nan nan nan nan nan nan nan nan nan nan nan nan nan nan nan nan
2 5 4 2 2 1 0 nan nan nan nan nan nan nan nan nan nan nan nan nan nan nan 0 0 0 0 0 nan nan nan 2 82 113 113 104 68 44 44 40 39 39 36 44 51 51 31 4 6 6 4 2 nan nan nan nan 1 1 0 nan nan nan nan nan nan nan nan nan nan nan nan nan nan nan nan nan nan nan nan nan nan nan nan nan nan nan nan
3 4 3 0 0 2 nan nan nan nan nan nan nan nan nan nan nan nan nan nan nan 0 2 10 10 12 12 nan nan nan 30 61 61 61 31 0 0 0 4 6 6 10 17 32 32 45 32 5 5 nan 1 nan nan nan nan 0 0 1 0 nan nan nan nan nan nan nan nan nan nan nan nan nan nan nan nan nan nan nan nan nan nan nan nan nan nan nan
4 3 2 2 2 0 nan nan nan nan nan nan nan nan nan nan nan nan nan nan nan 1 6 26 26 33 30 4 nan nan 29 21 nan nan nan nan nan nan nan nan nan 1 6 13 13 24 41 42 42 22 nan 1 nan nan nan nan nan 0 0 0 0 0 0 nan nan nan nan nan nan nan nan nan nan nan nan nan nan nan nan nan nan nan nan nan nan nan
0 nan nan nan nan nan nan nan nan nan nan nan nan nan nan nan nan nan nan nan nan 0 3 17 17 35 35 26 3 3 1 nan nan nan nan nan nan nan nan nan nan nan 0 3 3 11 24 40 40 40 39 18 1 1 nan nan nan 0 1 1 1 1 3 0 0 nan nan nan nan nan nan nan nan nan nan nan nan nan nan nan nan nan nan nan nan nan
nan nan nan nan nan nan nan nan nan nan nan nan nan nan nan nan nan nan nan nan nan nan 0 4 4 13 22 23 12 12 nan nan nan nan nan nan nan nan nan nan nan nan nan nan nan 3 19 27 27 38 56 38 1 1 1 10 10 9 4 4 4 4 6 1 1 nan nan nan nan nan nan nan nan nan nan nan nan nan nan nan nan nan nan nan nan nan
nan nan nan nan nan nan nan nan nan nan nan nan nan nan nan nan nan nan nan nan nan nan nan nan nan 1 5 5 nan nan nan nan nan nan nan nan nan nan nan nan nan nan nan nan nan nan 10 32 32 38 45 53 45 45 10 1 1 23 19 9 9 6 7 3 3 nan nan nan nan nan nan nan nan nan nan nan nan nan nan nan nan nan nan nan nan nan
nan nan nan nan nan nan nan nan nan nan nan nan nan nan nan nan nan nan nan nan nan nan nan nan nan nan 0 nan nan nan nan nan nan nan nan nan nan nan nan nan nan nan nan nan nan nan 1 23 23 35 49 60 73 73 64 26 26 1 20 20 20 7 5 3 3 0 nan nan nan nan nan nan nan nan nan nan nan nan nan nan nan nan nan nan nan nan
nan nan nan nan nan nan nan nan nan nan nan nan nan nan 0 nan nan nan nan nan nan 0 0 0 0 nan nan nan nan nan nan nan nan nan nan nan nan nan nan nan nan nan nan nan nan nan nan 14 14 32 57 73 78 78 83 78 78 38 20 35 35 19 5 1 1 1 nan nan nan nan nan nan nan nan nan nan nan nan nan nan nan nan nan nan nan nan
nan nan nan nan nan nan 0 nan nan nan nan nan 4 4 5 2 1 1 3 3 3 7 12 18 18 6 nan nan nan nan nan nan nan nan nan nan nan nan nan nan nan nan nan nan nan nan nan nan nan 18 55 89 88 88 89 91 91 82 60 45 45 34 12 0 0 nan 0 nan nan nan nan nan nan nan nan nan nan nan nan nan nan nan nan nan nan nan
0 nan nan nan nan nan 0 7 4 4 5 14 20 20 12 1 2 2 4 9 9 11 20 30 30 13 0 nan nan nan nan nan nan nan nan nan nan nan nan nan nan nan nan nan nan nan nan nan nan 0 36 88 100 100 101 92 92 94 84 67 67 49 21 7 7 nan nan 0 0 0 nan nan nan nan nan nan nan nan nan nan nan nan nan nan nan nan
0 5 7 4 4 11 13 24 41 41 20 12 7 7 0 7 45 45 50 47 47 34 28 26 26 16 3 1 nan nan nan nan nan nan nan nan nan nan nan nan nan nan nan nan nan nan nan nan nan nan 18 61 94 94 106 97 97 89 86 85 85 64 28 8 8 4 nan 0 2 2 0 0 nan nan nan nan nan nan nan nan nan nan nan nan nan nan
18 16 23 44 44 84 121 153 194 194 133 36 3 3 8 32 49 49 45 41 41 35 31 24 24 14 4 4 nan nan nan nan nan nan nan nan nan nan nan nan nan nan nan nan nan nan nan nan nan nan nan 30 96 96 99 99 99 83 77 84 84 81 39 7 7 5 1 nan 1 1 2 1 1 1 nan nan nan nan nan nan nan nan nan nan nan nan
72 82 113 122 122 128 146 175 226 226 280 221 72 72 29 25 19 19 14 21 21 35 43 37 37 22 14 17 4 4 nan nan nan nan nan nan nan nan nan nan nan nan nan nan nan nan nan nan nan nan nan 8 71 71 102 87 87 86 79 93 93 88 49 6 6 3 2 1 nan nan 0 2 3 3 4 1 nan nan nan nan nan nan nan nan nan nan
69 80 95 111 111 125 136 166 210 210 253 294 320 320 163 25 3 3 1 2 2 22 50 47 47 31 24 15 2 2 nan nan nan nan nan nan nan nan nan nan nan nan nan nan nan nan nan nan nan nan nan 0 15 15 78 89 89 89 93 110 110 90 52 2 2 2 nan 0 0 0 1 3 4 4 7 5 1 1 nan nan nan nan nan 0 0 1
58 67 79 99 99 113 142 167 203 203 233 250 265 265 150 3 nan nan nan 0 0 17 39 44 44 34 15 2 nan nan nan nan nan nan nan nan nan nan nan nan nan nan nan nan nan nan nan nan nan nan nan nan nan nan 26 93 93 97 124 128 128 95 47 11 11 0 nan nan 0 0 2 6 8 8 9 6 2 2 0 nan nan nan 0 2 2 3
25 43 54 72 72 103 120 71 111 111 154 172 184 184 130 1 nan nan nan nan nan 7 11 20 20 28 29 20 12 12 6 0 nan nan nan nan nan nan nan nan nan nan nan nan nan nan nan nan nan nan nan nan nan nan nan 12 12 48 91 162 162 104 41 9 9 0 0 0 2 2 4 8 11 11 9 7 4 4 2 0 0 1 5 6 6 5
4 0 nan 4 4 nan nan nan nan nan 54 119 135 135 38 nan nan nan nan nan nan 2 14 44 44 58 60 30 32 32 8 nan nan nan nan 0 2 2 nan nan nan nan nan nan nan nan 1 nan nan nan nan nan nan nan nan nan nan nan nan 19 19 64 37 4 4 nan 0 3 7 7 7 9 11 11 12 8 5 5 3 2 2 4 9 10 10 6
21 30 46 38 38 nan nan nan nan nan nan nan nan nan nan nan nan nan nan nan nan nan 3 11 11 13 20 20 22 22 4 nan nan nan 4 6 13 13 14 13 13 14 1 7 7 13 43 47 47 9 nan nan nan nan nan nan nan nan nan nan nan nan nan 3 3 0 0 11 9 9 9 9 11 11 15 15 14 14 9 7 7 9 15 15 15 8
31 36 22 3 3 nan nan nan nan nan nan nan nan nan nan nan 0 0 nan nan nan nan 1 8 8 10 9 2 nan nan nan nan nan nan 39 0 2 2 5 12 12 9 2 11 11 7 3 12 12 8 nan nan nan nan nan nan nan nan nan nan nan nan nan 1 1 2 2 10 11 11 11 11 13 13 16 18 18 18 14 10 10 10 19 17 17 7
19 10 0 nan nan nan nan nan nan nan nan nan nan nan nan nan nan nan 6 nan nan nan nan 1 1 16 19 5 nan nan nan nan 3 3 49 0 nan nan 1 9 9 7 5 7 7 nan nan nan nan 22 19 0 nan nan nan nan nan nan nan nan nan nan nan nan nan 0 nan 2 5 5 11 13 17 17 16 20 22 22 17 13 13 11 17 19 19 7
6 2 nan nan nan nan nan nan nan nan nan nan nan nan nan nan nan nan nan nan nan nan nan nan nan 15 22 12 6 6 1 nan nan nan 15 0 nan nan nan nan nan nan 1 5 5 2 0 nan nan 14 8 1 nan nan nan nan nan nan nan nan nan nan nan nan nan nan nan 2 6 6 10 14 17 17 16 18 21 21 19 14 14 13 14 14 14 5
0 nan nan nan nan nan nan nan nan nan nan nan nan nan nan nan nan nan nan nan nan nan nan nan nan 14 11 0 nan nan nan nan nan nan 4 nan nan nan nan nan nan nan nan 5 5 4 1 0 0 1 2 0 nan nan nan nan nan nan nan nan nan nan nan nan nan nan nan 1 5 5 9 15 20 20 16 14 16 16 18 17 17 13 11 11 11 2
1 4 nan nan nan nan nan nan nan nan nan nan nan nan nan nan nan nan nan nan nan nan nan nan nan 23 41 2 nan nan nan nan nan nan nan nan nan nan 0 0 0 nan nan 2 2 0 nan nan nan nan nan nan nan nan nan nan nan nan nan nan nan nan nan nan nan nan nan 1 3 3 6 13 21 21 25 15 9 9 15 14 14 12 7 5 5 1
9 4 nan nan nan nan nan nan nan nan nan nan nan nan nan nan nan nan nan nan nan nan nan nan nan nan 1 27 4 4 nan nan nan nan nan nan nan nan nan nan nan nan nan nan nan nan nan nan nan nan nan nan nan nan nan 1 1 nan nan nan nan nan nan nan nan nan nan 0 2 2 4 9 13 13 20 23 21 21 11 14 14 13 5 3 3 nan
16 12 6 7 7 15 18 4 nan nan nan nan nan nan nan nan nan nan nan nan nan nan nan nan nan nan nan nan nan nan nan nan nan nan nan nan nan nan nan nan nan nan nan nan nan nan nan nan nan nan nan nan nan nan nan 0 0 nan nan nan nan nan nan nan nan nan nan nan 0 0 1 3 7 7 9 11 12 12 11 7 7 9 5 4 4 nan
37 42 42 48 48 38 21 7 nan nan nan nan nan nan nan nan nan nan nan nan nan nan nan nan nan nan nan nan nan nan nan nan nan nan nan nan nan nan nan nan nan nan nan nan nan nan nan nan nan nan nan nan nan nan nan 0 0 7 25 8 8 nan nan nan nan nan nan nan nan nan 0 1 1 1 1 3 10 10 11 5 5 3 4 4 4 nan
21 18 26 25 25 11 2 nan nan nan nan nan nan nan nan nan nan nan nan nan nan nan nan nan nan nan nan nan nan nan nan nan nan nan nan nan nan nan nan nan nan nan nan nan nan nan nan nan nan nan nan nan nan nan 2 3 3 17 34 26 26 4 nan nan nan nan nan nan nan nan nan nan nan nan nan 0 3 3 6 3 3 0 4 1 1 nan
12 7 8 5 5 1 nan nan nan nan nan nan nan nan nan nan nan nan nan nan nan nan nan nan nan nan nan nan nan nan nan nan nan nan nan nan nan nan nan nan nan nan nan nan nan nan nan nan nan nan nan nan nan nan 0 2 2 8 18 15 15 5 2 nan nan nan nan nan nan nan nan nan nan nan nan nan nan nan nan nan nan nan 3 nan nan nan
4 5 5 1 1 nan 0 0 nan nan nan nan nan nan nan nan nan nan nan nan nan nan nan nan nan nan nan nan nan nan nan nan nan nan nan nan nan nan nan nan nan nan nan nan nan 0 nan nan nan nan nan nan nan nan 0 1 1 3 8 9 9 8 6 nan nan nan nan nan nan nan nan nan nan nan nan nan nan nan nan nan nan nan nan nan nan nan
2 2 0 1 1 0 1 0 0 0 3 8 8 8 nan nan nan nan nan nan nan nan nan nan nan nan nan nan nan nan nan nan nan nan nan nan nan nan nan nan nan nan nan nan nan 1 5 8 8 5 2 1 1 1 2 1 1 2 3 6 6 13 15 nan nan nan nan nan nan nan nan nan nan nan nan nan nan nan nan nan nan nan nan nan nan nan
nan nan nan 1 1 0 nan 2 11 11 18 13 2 2 nan nan nan nan nan nan nan nan nan nan nan nan nan nan nan nan nan nan nan nan nan nan nan nan nan nan nan nan nan nan nan nan 4 11 11 10 8 9 10 10 6 5 5 4 7 7 7 25 15 nan nan nan nan nan nan nan nan nan nan nan nan nan nan nan nan nan nan nan nan nan nan nan
nan nan nan nan nan nan 2 10 16 16 6 0 nan nan nan nan nan nan nan nan nan nan nan nan nan nan 0 nan nan nan nan nan nan nan nan nan nan nan nan nan nan nan nan nan nan nan nan 4 4 8 18 29 30 30 19 11 11 7 2 19 19 41 26 nan nan nan nan nan nan nan nan nan nan nan nan nan nan nan nan nan nan nan nan nan nan nan
nan nan nan nan nan nan 2 3 2 2 0 nan nan nan nan nan nan nan nan nan nan nan nan nan nan 0 1 nan nan nan nan nan nan nan nan nan nan nan nan nan nan nan nan nan nan nan nan nan nan 3 16 33 35 35 19 19 19 19 27 23 23 21 31 17 17 0 nan nan nan nan nan nan nan nan nan nan nan nan nan nan nan nan nan nan nan nan
2 0 nan nan nan nan 0 nan nan nan nan nan nan nan nan nan nan nan nan nan nan nan nan nan nan nan nan nan nan nan nan nan nan nan nan nan nan nan nan nan nan nan nan nan nan nan nan nan nan nan 9 25 21 21 21 31 31 27 19 10 10 6 22 17 17 3 nan nan nan nan nan nan nan nan nan nan nan nan nan nan nan nan nan nan nan nan
2 0 nan nan nan nan nan nan nan nan nan nan nan nan nan nan 14 14 1 nan nan nan nan nan nan nan nan nan nan nan nan nan nan nan nan nan nan nan nan nan nan nan nan nan nan nan nan nan nan nan 8 15 13 13 11 19 19 18 11 5 5 5 16 2 2 1 nan nan nan nan nan nan nan nan nan nan nan nan nan nan nan nan nan nan nan nan
2 1 0 0 0 nan 0 nan 0 0 1 nan 0 0 nan nan nan nan nan nan nan nan nan nan nan nan nan nan nan nan nan nan nan nan nan nan nan nan nan nan nan nan nan nan nan nan nan nan nan nan 5 27 10 10 9 9 9 3 3 6 6 2 9 3 3 0 nan nan nan nan nan nan nan nan nan nan nan nan nan nan nan nan nan nan nan nan
7 2 1 1 1 1 0 0 1 1 1 2 1 1 0 nan nan nan nan nan nan nan nan nan nan nan nan nan nan nan nan nan nan nan nan nan nan nan nan nan nan 0 nan nan nan nan nan nan nan nan nan 67 42 42 8 7 7 4 5 12 12 5 5 3 3 6 11 2 nan nan nan nan nan nan nan nan nan nan nan nan nan nan nan nan nan nan
CIN
nan nan nan nan nan nan nan nan nan nan nan nan nan nan nan nan nan nan nan nan nan nan nan nan nan nan nan nan nan nan nan nan -36 -36 -32 -33 -34 -34 -36 -39 -39 nan nan nan nan nan nan nan nan nan nan nan nan nan -0 -0 -0 -1 -1 -1 -1 -0 -0 -0 -0 -0 -0 -0 -0 -0 -0 -11 -24 -24 nan nan nan nan -38 -38 -38 -31 -23 -16 -16 -6
nan nan nan nan nan nan nan nan nan nan nan nan nan nan nan nan nan nan nan nan nan nan nan nan nan nan nan nan nan nan nan nan -33 -33 -28 -31 -33 -33 -35 -38 -38 -42 nan nan nan nan nan nan nan nan nan nan nan nan nan -1 -1 -1 -1 -2 -2 -1 -0 -0 -0 -0 -0 -0 -0 -0 -2 -15 -56 -56 nan nan -19 -19 -22 -27 -27 -28 -21 -12 -12 -5
nan nan nan nan nan nan nan nan nan nan nan nan nan nan nan nan nan nan nan nan nan nan nan nan nan nan nan nan -56 -56 -53 -40 -30 -30 -25 -27 -30 -30 -34 -36 -36 -38 -43 nan nan nan nan nan nan nan nan nan nan nan nan nan nan -6 -4 -4 -4 -3 -2 -0 -0 -0 -0 -0 -2 -2 -17 -47 nan nan nan nan -11 -11 -8 -17 -17 -23 -17 -7 -7 -5
nan nan nan nan nan nan nan nan nan nan nan nan nan nan nan nan nan nan nan nan nan nan nan nan nan nan nan nan -53 -53 -32 -28 -23 -23 -20 -22 -28 -28 -33 -36 -36 -36 -36 -42 -42 nan nan nan nan nan nan nan nan nan nan nan nan nan nan nan nan nan -7 -31 -31 -27 -17 nan nan nan nan nan nan nan nan nan -27 -27 -10 -14 -14 -24 -13 -0 -0 -0
nan nan nan nan nan nan nan nan nan nan nan nan nan nan nan nan nan nan nan nan nan nan nan nan nan nan nan nan nan nan -22 -18 -18 -18 -17 -16 -22 -22 -29 -32 -32 -32 -33 -34 -34 -37 nan nan nan nan nan nan nan nan nan nan nan nan nan nan nan nan nan nan nan nan nan nan nan nan nan nan nan nan nan nan -33 -33 -0 -7 -7 -18 -16 -0 -0 -0
nan nan nan nan nan nan nan nan nan nan nan nan nan nan nan nan nan nan nan nan nan nan nan nan nan nan nan nan nan nan -25 -16 -16 -16 -16 -13 -16 -16 -19 -26 -26 -26 -25 -24 -24 -25 -29 nan nan -2 -1 -2 -2 -2 -4 nan nan nan nan nan nan nan nan nan nan nan nan nan nan nan nan nan nan nan nan nan -45 -45 -0 -0 -0 -0 -12 -0 -0 -0
nan nan nan nan nan nan nan nan nan nan nan nan nan nan nan nan nan nan nan nan nan nan nan nan nan nan nan nan nan nan -40 -21 -18 -18 -18 -15 -12 -12 -9 -10 -10 -16 -18 -17 -17 -18 -22 -27 -27 nan -2 -1 -2 -2 -3 -5 -5 nan nan nan nan nan nan nan nan nan nan nan nan nan nan nan nan nan nan nan nan nan -0 -0 -0 -0 -5 -0 -0 -0
nan nan nan nan nan nan nan nan nan nan nan nan nan nan nan nan nan nan nan nan nan nan nan nan nan nan nan nan nan nan nan nan nan nan -48 -35 -25 -25 -18 -10 -10 -5 -7 -10 -10 -15 -25 -30 -30 -35 nan nan -2 -2 -2 -5 -5 nan nan nan nan nan nan nan nan nan nan nan nan nan nan nan nan nan nan nan nan nan nan -0 -0 -0 -0 -1 -1 -0
nan nan nan nan nan nan nan nan nan nan nan nan nan nan nan nan nan nan nan nan nan nan nan nan nan nan nan nan nan nan nan nan nan nan -49 -56 -58 -58 -33 -20 -20 -11 -9 -10 -10 -15 -25 -34 -34 -38 -43 nan -2 -2 -3 -6 -6 nan nan nan nan nan nan nan nan nan nan nan nan nan nan nan nan nan nan nan nan nan nan nan nan -0 -0 -3 -3 -1
-23 nan nan nan nan nan nan nan nan nan nan nan nan nan nan nan nan nan nan nan nan nan nan nan nan nan nan nan nan nan nan -32 -15 -15 -11 -33 -22 -22 -39 -40 -40 -28 -19 -15 -15 -18 -27 -34 -34 -40 -45 nan -2 -2 -4 -8 -8 nan nan nan nan nan nan nan nan nan nan nan nan nan nan nan nan nan nan nan nan nan nan nan nan nan -6 -5 -5 -1
-8 -8 -12 -9 -9 nan nan nan nan nan nan nan nan nan nan nan nan nan nan nan nan nan nan nan nan nan nan nan nan nan nan nan -39 -39 -24 -30 -28 -28 -31 -38 -38 -39 -29 -24 -24 -24 -30 -38 -38 -42 -49 nan nan nan nan nan nan nan nan nan nan nan nan nan nan nan nan nan nan nan nan nan nan nan nan nan nan nan nan nan nan nan nan -10 -10 -2
-8 -10 -11 -13 -13 -30 nan nan nan nan nan nan nan nan nan nan nan nan nan nan nan nan nan nan nan nan nan nan nan nan nan -50 -38 -38 -39 -30 -21 -21 -20 -21 -21 -16 -20 -17 -17 -25 -29 -37 -37 -42 -51 nan nan nan nan nan nan nan nan nan nan nan nan nan nan nan nan nan nan nan nan nan nan nan nan nan nan nan nan nan nan nan nan nan nan -4
-5 -10 -13 -11 -11 -15 -21 nan nan nan nan nan nan nan nan nan nan nan nan nan nan nan nan nan nan nan nan nan nan nan nan -47 -25 -25 -19 -16 -18 -18 -8 -4 -4 -6 -18 -21 -21 -24 -21 -29 -29 -41 -48 nan nan nan nan nan nan nan nan nan nan nan nan nan nan nan nan nan nan nan nan nan nan nan nan nan nan nan nan nan nan nan nan nan nan -35
-7 -9 -8 -11 -11 -12 -18 nan nan nan nan nan nan nan nan nan nan nan nan nan nan nan nan nan nan nan nan nan nan nan nan -33 -12 -12 -4 -4 -4 -4 -2 -0 -0 -1 -2 -3 -3 -21 -20 -25 -25 -38 -40 nan nan nan -4 nan nan nan nan nan nan -57 nan nan nan nan nan nan nan nan nan nan nan nan nan nan nan nan nan nan nan nan nan nan nan nan
-8 -6 -5 -8 -8 -11 -10 nan nan nan nan nan nan nan nan nan nan nan nan nan nan nan -48 -42 -42 -40 -44 nan nan nan -86 -15 -1 -1 -1 -5 -10 -10 -4 -1 -1 -1 -1 -0 -0 -2 -5 -24 -24 -38 -45 nan nan nan nan -2 -2 -3 nan nan nan nan nan nan nan nan nan nan nan nan nan nan nan nan nan nan nan nan nan nan nan nan nan nan nan nan
-7 -7 -6 -9 -9 -4 nan nan nan nan nan nan nan nan nan nan nan nan nan nan nan -37 -32 -25 -25 -19 -17 nan nan nan -65 -19 -3 -3 -4 -31 -73 -73 -16 -5 -5 -3 -2 -1 -1 -1 -3 -7 -7 nan -46 nan nan nan nan -3 -3 -2 -4 nan nan nan nan nan nan nan nan nan nan nan nan nan nan nan nan nan nan nan nan nan nan nan nan nan nan nan
-9 -9 -7 -5 -5 -7 nan nan nan nan nan nan nan nan nan nan nan nan nan nan nan -29 -22 -10 -10 -4 -4 -28 nan nan -65 -39 nan nan nan nan nan nan nan nan nan -8 -6 -3 -3 -2 -1 -2 -2 -4 nan -27 nan nan nan nan nan -3 -4 -30 -30 -48 -65 nan nan nan nan nan nan nan nan nan nan nan nan nan nan nan nan nan nan nan nan nan nan nan
-16 nan nan nan nan nan nan nan nan nan nan nan nan nan nan nan nan nan nan nan nan -20 -19 -10 -10 -4 -4 -5 -42 -42 -75 nan nan nan nan nan nan nan nan nan nan nan -16 -10 -10 -6 -3 -2 -2 -2 -2 -1 -22 -22 nan nan nan -33 -26 -29 -29 -46 -61 -73 -73 nan nan nan nan nan nan nan nan nan nan nan nan nan nan nan nan nan nan nan nan nan
nan nan nan nan nan nan nan nan nan nan nan nan nan nan nan nan nan nan nan nan nan nan -18 -11 -11 -8 -6 -3 -23 -23 nan nan nan nan nan nan nan nan nan nan nan nan nan nan nan -13 -5 -3 -3 -2 -0 -0 -1 -1 -15 -22 -22 -29 -31 -33 -33 -44 -55 -65 -65 nan nan nan nan nan nan nan nan nan nan nan nan nan nan nan nan nan nan nan nan nan
nan nan nan nan nan nan nan nan nan nan nan nan nan nan nan nan nan nan nan nan nan nan nan nan nan -9 -7 -9 nan nan nan nan nan nan nan nan nan nan nan nan nan nan nan nan nan nan -12 -3 -3 -2 -1 -0 -0 -0 -0 -9 -9 -15 -24 -34 -34 -45 -54 -59 -59 nan nan nan nan nan nan nan nan nan nan nan nan nan nan nan nan nan nan nan nan nan
nan nan nan nan nan nan nan nan nan nan nan nan nan nan nan nan nan nan nan nan nan nan nan nan nan nan -13 nan nan nan nan nan nan nan nan nan nan nan nan nan nan nan nan nan nan nan -30 -8 -8 -4 -2 -1 -0 -0 -0 -0 -0 -0 -12 -25 -25 -40 -50 -55 -55 -56 nan nan nan nan nan nan nan nan nan nan nan nan nan nan nan nan nan nan nan nan
nan nan nan nan nan nan nan nan nan nan nan nan nan nan -16 nan nan nan nan nan nan -24 -25 -21 -21 nan nan nan nan nan nan nan nan nan nan nan nan nan nan nan nan nan nan nan nan nan nan -17 -17 -5 -1 -0 -1 -1 -0 -0 -0 -0 -0 -9 -9 -25 -37 -51 -51 -52 nan nan nan nan nan nan nan nan nan nan nan nan nan nan nan nan nan nan nan nan
nan nan nan nan nan nan -9 nan nan nan nan nan -14 -14 -15 -19 -20 -20 -18 -21 -21 -16 -13 -12 -12 -21 nan nan nan nan nan nan nan nan nan nan nan nan nan nan nan nan nan nan nan nan nan nan nan -18 -2 -0 -0 -0 -1 -1 -1 -0 -0 -1 -1 -11 -24 -35 -35 nan -44 nan nan nan nan nan nan nan nan nan nan nan nan nan nan nan nan nan nan nan
-27 nan nan nan nan nan -20 -6 -9 -9 -14 -9 -8 -8 -13 -25 -21 -21 -22 -19 -19 -14 -5 -5 -5 -6 -19 nan nan nan nan nan nan nan nan nan nan nan nan nan nan nan nan nan nan nan nan nan nan -48 -15 -0 -0 -0 -0 -2 -2 -0 -0 -0 -0 -4 -13 -20 -20 nan nan -37 -48 -48 nan nan nan nan nan nan nan nan nan nan nan nan nan nan nan nan
-43 -31 -25 -29 -29 -20 -18 -9 -5 -5 -7 -7 -12 -12 -24 -10 -0 -0 -1 -1 -1 -1 -2 -3 -3 -4 -14 -12 nan nan nan nan nan nan nan nan nan nan nan nan nan nan nan nan nan nan nan nan nan nan -32 -9 -1 -1 -1 -2 -2 -3 -2 -0 -0 -2 -6 -14 -14 -18 nan -14 -11 -11 -12 -9 nan nan nan nan nan nan nan nan nan nan nan nan nan nan
-20 -23 -21 -13 -13 -1 -0 -0 -0 -0 -4 -17 -50 -50 -32 -7 -3 -3 -1 -1 -1 -2 -3 -7 -7 -11 -26 -19 nan nan nan nan nan nan nan nan nan nan nan nan nan nan nan nan nan nan nan nan nan nan nan -25 -3 -3 -4 -6 -6 -9 -8 -4 -4 -1 -2 -12 -12 -17 -18 nan -9 -9 -9 -7 -6 -6 nan nan nan nan nan nan nan nan nan nan nan nan
-0 -0 -0 -0 -0 -0 -0 -0 -0 -0 -0 -0 -20 -20 -34 -20 -11 -11 -10 -5 -5 -5 -2 -3 -3 -8 -15 -12 -18 -18 nan nan nan nan nan nan nan nan nan nan nan nan nan nan nan nan nan nan nan nan nan -38 -14 -14 -8 -16 -16 -18 -16 -7 -7 -1 -1 -11 -11 -21 -20 -14 nan nan -6 -5 -4 -4 -4 -5 nan nan nan nan nan nan nan nan nan nan
-0 -0 -0 -0 -0 -0 -0 -0 -0 -0 -0 -0 -0 -0 -2 -12 -15 -15 -10 -10 -10 -6 -2 -2 -2 -3 -4 -6 -17 -17 nan nan nan nan nan nan nan nan nan nan nan nan nan nan nan nan nan nan nan nan nan -46 -38 -38 -18 -20 -20 -24 -22 -10 -10 -5 -1 -1 -1 -23 nan -17 -11 -11 -2 -2 -3 -3 -4 -6 -6 -6 nan nan nan nan nan -7 -7 -3
-0 -0 -0 -0 -0 -0 -0 -0 -0 -0 -0 -0 -0 -0 -0 -14 nan nan nan -12 -12 -3 -1 -1 -1 -1 -3 -10 nan nan nan nan nan nan nan nan nan nan nan nan nan nan nan nan nan nan nan nan nan nan nan nan nan nan -35 -18 -18 -20 -17 -12 -12 -8 -9 -9 -9 -8 nan nan -1 -1 -1 -1 -1 -1 -3 -6 -7 -7 -5 nan nan nan -5 -4 -4 -2
-8 -0 -0 -0 -0 -0 -0 -0 -0 -0 -0 -0 -0 -0 -0 -11 nan nan nan nan nan -1 -1 -1 -1 -1 -3 -8 -16 -16 -25 -38 nan nan nan nan nan nan nan nan nan nan nan nan nan nan nan nan nan nan nan nan nan nan nan -38 -38 -25 -19 -0 -0 -10 -25 -34 -34 -25 -21 -2 -0 -0 -0 -0 -0 -0 -1 -4 -6 -6 -5 -3 -3 -2 -1 -1 -1 -2
-26 -28 nan -15 -15 nan nan nan nan nan -0 -0 -0 -0 -0 nan nan nan nan nan nan -12 -0 -0 -0 -1 -2 -3 -2 -2 -17 nan nan nan nan -33 -17 -17 nan nan nan nan nan nan nan nan -14 nan nan nan nan nan nan nan nan nan nan nan nan -70 -70 -15 -40 -76 -76 nan -28 -2 -0 -0 -0 -0 -0 -0 -0 -1 -5 -5 -5 -3 -3 -1 -1 -1 -1 -2
-3 -3 -4 -4 -4 nan nan nan nan nan nan nan nan nan nan nan nan nan nan nan nan nan -11 -5 -5 -3 -2 -1 -1 -1 -5 nan nan nan -31 -10 -2 -2 -1 -3 -3 -7 -15 -20 -20 -0 -0 -0 -0 -8 nan nan nan nan nan nan nan nan nan nan nan nan nan -9 -9 -8 -4 -2 -1 -1 -0 -0 -0 -0 -0 -0 -1 -1 -2 -2 -2 -1 -1 -1 -1 -2
-4 -4 -5 -7 -7 nan nan nan nan nan nan nan nan nan nan nan -20 -20 nan nan nan nan -18 -7 -7 -4 -4 -5 nan nan nan nan nan nan -9 -11 -7 -7 -1 -2 -2 -6 -15 -28 -28 -0 -21 -2 -2 -2 nan nan nan nan nan nan nan nan nan nan nan nan nan -14 -14 -13 -2 -2 -1 -1 -1 -1 -0 -0 -0 -0 -0 -0 -1 -2 -2 -1 -1 -1 -1 -4
-5 -5 -7 nan nan nan nan nan nan nan nan nan nan nan nan nan nan nan -16 nan nan nan nan -8 -8 -3 -2 -6 nan nan nan nan -18 -18 -1 -0 nan nan -2 -2 -2 -4 -19 -35 -35 nan nan nan nan -2 -3 -8 nan nan nan nan nan nan nan nan nan nan nan nan nan -32 nan -2 -3 -3 -2 -2 -0 -0 -0 -0 -0 -0 -1 -1 -1 -1 -1 -1 -1 -4
-5 -4 nan nan nan nan nan nan nan nan nan nan nan nan nan nan nan nan nan nan nan nan nan nan nan -9 -7 -14 -18 -18 -26 nan nan nan -0 -0 nan nan nan nan nan nan -54 -40 -40 -49 -48 nan nan -3 -3 -7 nan nan nan nan nan nan nan nan nan nan nan nan nan nan nan -2 -2 -2 -2 -2 -1 -1 -1 -0 -0 -0 -1 -2 -2 -1 -1 -1 -1 -7
-8 nan nan nan nan nan nan nan nan nan nan nan nan nan nan nan nan nan nan nan nan nan nan nan nan -18 -17 -42 nan nan nan nan nan nan -1 nan nan nan nan nan nan nan nan -5 -5 -5 -4 -5 -5 -6 -5 -8 nan nan nan nan nan nan nan nan nan nan nan nan nan nan nan -1 -1 -1 -1 -1 -1 -1 -2 -2 -1 -1 -2 -2 -2 -3 -2 -1 -1 -12
-6 -4 nan nan nan nan nan nan nan nan nan nan nan nan nan nan nan nan nan nan nan nan nan nan nan -2 -1 -27 nan nan nan nan nan nan nan nan nan nan -11 -11 -11 nan nan -3 -3 -4 nan nan nan nan nan nan nan nan nan nan nan nan nan nan nan nan nan nan nan nan nan -0 -1 -1 -1 -1 -1 -1 -1 -4 -4 -4 -2 -2 -2 -3 -4 -3 -3 -12
-4 -11 nan nan nan nan nan nan nan nan nan nan nan nan nan nan nan nan nan nan nan nan nan nan nan nan -44 -1 -35 -35 nan nan nan nan nan nan nan nan nan nan nan nan nan nan nan nan nan nan nan nan nan nan nan nan nan -24 -24 nan nan nan nan nan nan nan nan nan nan -0 -0 -0 -1 -1 -1 -1 -1 -3 -3 -3 -2 -2 -2 -2 -3 -4 -4 nan
-6 -12 -21 -25 -25 -14 -7 -11 nan nan nan nan nan nan nan nan nan nan nan nan nan nan nan nan nan nan nan nan nan nan nan nan nan nan nan nan nan nan nan nan nan nan nan nan nan nan nan nan nan nan nan nan nan nan nan -28 -28 nan nan nan nan nan nan nan nan nan nan nan -0 -0 -1 -1 -1 -1 -1 -3 -7 -7 -6 -5 -5 -2 -3 -3 -3 nan
-1 -1 -2 -1 -1 -2 -3 -5 nan nan nan nan nan nan nan nan nan nan nan nan nan nan nan nan nan nan nan nan nan nan nan nan nan nan nan nan nan nan nan nan nan nan nan nan nan nan nan nan nan nan nan nan nan nan nan -20 -20 -18 -7 -11 -11 nan nan nan nan nan nan nan nan nan -1 -1 -1 -1 -1 -2 -4 -4 -8 -11 -11 -8 -6 -6 -6 nan
-0 -0 -0 -0 -0 -2 -5 nan nan nan nan nan nan nan nan nan nan nan nan nan nan nan nan nan nan nan nan nan nan nan nan nan nan nan nan nan nan nan nan nan nan nan nan nan nan nan nan nan nan nan nan nan nan nan -6 -10 -10 -6 -2 -2 -2 -9 nan nan nan nan nan nan nan nan nan nan nan nan nan -2 -6 -6 -11 -16 -16 -17 -11 -14 -14 nan
-0 -0 -0 -3 -3 -9 nan nan nan nan nan nan nan nan nan nan nan nan nan nan nan nan nan nan nan nan nan nan nan nan nan nan nan nan nan nan nan nan nan nan nan nan nan nan nan nan nan nan nan nan nan nan nan nan -7 -9 -9 -9 -6 -5 -5 -7 -8 nan nan nan nan nan nan nan nan nan nan nan nan nan nan nan nan nan nan nan -18 nan nan nan
-0 -0 -1 -10 -10 nan -14 -14 nan nan nan nan nan nan nan nan nan nan nan nan nan nan nan nan nan nan nan nan nan nan nan nan nan nan nan nan nan nan nan nan nan nan nan nan nan -4 nan nan nan nan nan nan nan nan -6 -8 -8 -9 -10 -10 -10 -5 -2 nan nan nan nan nan nan nan nan nan nan nan nan nan nan nan nan nan nan nan nan nan nan nan
-1 -3 -11 -14 -14 -19 -15 -15 -18 -18 -10 -3 -2 -2 nan nan nan nan nan nan nan nan nan nan nan nan nan nan nan nan nan nan nan nan nan nan nan nan nan nan nan nan nan nan nan -2 -2 -2 -2 -6 -12 -11 -6 -6 -3 -8 -8 -8 -14 -15 -15 -4 -1 nan nan nan nan nan nan nan nan nan nan nan nan nan nan nan nan nan nan nan nan nan nan nan
nan nan nan -10 -10 -10 nan -11 -7 -7 -3 -1 -5 -5 nan nan nan nan nan nan nan nan nan nan nan nan nan nan nan nan nan nan nan nan nan nan nan nan nan nan nan nan nan nan nan nan -1 -1 -1 -3 -9 -9 -5 -5 -4 -5 -5 -6 -10 -17 -17 -7 -10 nan nan nan nan nan nan nan nan nan nan nan nan nan nan nan nan nan nan nan nan nan nan nan
nan nan nan nan nan nan -2 -0 -1 -1 -5 -9 nan nan nan nan nan nan nan nan nan nan nan nan nan nan -3 nan nan nan nan nan nan nan nan nan nan nan nan nan nan nan nan nan nan nan nan -1 -1 -2 -3 -3 -2 -2 -4 -4 -4 -5 -14 -10 -10 -6 -15 nan nan nan nan nan nan nan nan nan nan nan nan nan nan nan nan nan nan nan nan nan nan nan
nan nan nan nan nan nan -4 -5 -4 -4 -8 nan nan nan nan nan nan nan nan nan nan nan nan nan nan -5 -4 nan nan nan nan nan nan nan nan nan nan nan nan nan nan nan nan nan nan nan nan nan nan -3 -1 -0 -1 -1 -6 -6 -6 -2 -2 -7 -7 -14 -12 -12 -12 -25 nan nan nan nan nan nan nan nan nan nan nan nan nan nan nan nan nan nan nan nan
-9 -11 nan nan nan nan -10 nan nan nan nan nan nan nan nan nan nan nan nan nan nan nan nan nan nan nan nan nan nan nan nan nan nan nan nan nan nan nan nan nan nan nan nan nan nan nan nan nan nan nan -1 -0 -1 -1 -2 -3 -3 -4 -7 -20 -20 -25 -11 -10 -10 -25 nan nan nan nan nan nan nan nan nan nan nan nan nan nan nan nan nan nan nan nan
-12 -15 nan nan nan nan nan nan nan nan nan nan nan nan nan nan -0 -0 -8 nan nan nan nan nan nan nan nan nan nan nan nan nan nan nan nan nan nan nan nan nan nan nan nan nan nan nan nan nan nan nan -2 -1 -1 -1 -1 -3 -3 -7 -14 -23 -23 -20 -9 -14 -14 -30 nan nan nan nan nan nan nan nan nan nan nan nan nan nan nan nan nan nan nan nan
-13 -17 -16 -15 -15 nan -12 nan -8 -8 -8 nan -11 -11 nan nan nan nan nan nan nan nan nan nan nan nan nan nan nan nan nan nan nan nan nan nan nan nan nan nan nan nan nan nan nan nan nan nan nan nan -8 -2 -1 -1 -1 -2 -2 -8 -12 -15 -15 -20 -10 -10 -10 -26 nan nan nan nan nan nan nan nan nan nan nan nan nan nan nan nan nan nan nan nan
-5 -12 -13 -14 -14 -11 -13 -11 -7 -7 -8 -6 -10 -10 -11 nan nan nan nan nan nan nan nan nan nan nan nan nan nan nan nan nan nan nan nan nan nan nan nan nan nan -4 nan nan nan nan nan nan nan nan nan -3 -2 -2 -1 -2 -2 -4 -5 -6 -6 -14 -10 -9 -9 -10 -13 -16 nan nan nan nan nan nan nan nan nan nan nan nan nan nan nan nan nan nan
Wind_Speed
5 6 6 8 8 7 7 9 10 10 11 10 10 10 10 10 10 10 12 11 11 11 10 10 10 11 12 13 15 16 17 18 19 19 19 18 18 17 16 16 16 15 15 15 15 15 15 15 15 16 16 16 17 17 17 17 17 17 17 17 17 18 19 19 20 20 20 19 18 18 18 19 21 22 22 21 20 20 20 20 20 20 19 19 19 19
6 6 6 7 8 8 8 9 10 10 11 11 11 11 11 12 11 10 10 10 10 10 10 10 11 11 12 13 15 17 18 19 19 19 19 19 18 18 17 16 16 16 15 15 15 15 15 15 15 16 16 16 17 17 17 17 17 17 16 16 16 17 18 19 20 21 20 19 18 18 17 18 19 20 21 21 21 21 21 21 20 20 19 20 20 20
7 7 6 6 7 7 8 9 9 9 10 11 11 12 13 13 12 11 10 10 10 10 10 11 11 11 12 12 14 17 18 19 20 20 20 19 19 18 17 17 17 16 16 15 15 15 15 15 15 16 16 17 17 17 17 17 17 17 16 16 16 16 17 19 20 20 20 19 17 16 16 16 17 18 20 21 21 21 21 21 20 19 19 20 21 21
7 8 7 6 6 6 7 8 8 9 9 10 11 12 12 11 10 10 10 10 11 11 11 12 12 11 10 10 12 15 18 20 21 21 21 20 20 19 18 17 17 17 16 16 15 15 14 15 15 16 16 17 17 18 18 18 18 18 17 16 16 16 16 18 19 20 20 18 17 16 15 16 16 17 19 20 21 22 22 21 20 20 20 21 22 21
6 7 7 6 6 7 7 7 8 8 8 9 9 9 10 9 8 9 9 10 11 11 11 12 12 12 11 10 11 14 18 20 21 22 22 21 20 19 19 18 17 17 16 15 15 14 14 14 15 16 16 17 18 18 19 19 19 18 18 17 16 16 16 17 18 19 19 18 17 16 16 17 18 18 19 19 21 22 23 22 21 20 20 22 22 22
6 6 6 6 6 6 7 7 7 7 7 7 7 7 7 7 7 7 8 9 10 10 10 10 11 12 12 11 13 15 18 19 21 22 22 21 21 20 19 18 18 17 16 15 14 14 14 14 15 16 17 17 18 19 19 19 19 19 18 17 17 16 16 16 17 18 19 18 17 17 17 18 19 19 19 19 20 22 24 23 21 20 20 20 21 21
6 5 5 5 5 6 6 6 6 6 6 6 7 7 7 6 6 7 7 8 8 8 9 10 10 11 12 12 14 15 16 17 18 19 20 21 20 20 19 19 18 17 16 15 15 14 15 15 16 16 17 18 19 19 20 20 20 19 19 18 17 16 16 16 16 17 18 19 18 17 16 16 17 19 19 19 20 22 23 24 22 20 19 19 19 19
7 6 5 5 6 6 6 6 6 6 6 7 7 8 8 7 7 7 7 7 7 7 8 9 9 9 10 10 12 13 13 13 13 14 16 17 18 18 18 18 18 17 17 16 16 16 16 16 17 17 18 19 19 20 20 20 20 20 19 18 17 16 16 16 16 16 17 18 18 17 16 15 15 16 17 19 20 21 23 24 23 21 19 19 18 18
8 8 6 5 6 6 8 6 6 5 6 7 8 9 10 10 9 8 7 7 7 6 6 7 8 8 8 8 9 11 12 12 11 11 12 12 13 14 16 17 17 17 17 17 17 17 17 17 18 18 19 19 20 20 20 20 20 19 19 18 17 16 16 16 16 16 16 17 17 17 16 15 14 14 15 16 18 20 22 23 22 21 19 19 18 18
7 8 7 6 5 5 7 8 7 6 6 7 7 8 8 10 10 10 9 8 7 5 5 6 8 9 9 8 8 9 11 12 13 14 15 14 14 15 15 15 16 16 18 18 18 18 18 18 18 19 19 20 20 20 20 20 20 19 19 18 17 16 16 16 16 15 15 16 16 16 16 16 15 13 12 13 15 17 19 20 20 19 18 18 18 19
7 7 7 7 6 5 5 7 6 6 5 6 6 6 6 7 8 9 10 9 8 7 6 6 7 8 9 9 9 9 10 11 12 13 14 14 15 16 15 15 15 16 17 18 18 19 19 18 18 19 19 19 20 20 20 20 19 19 19 18 17 17 16 16 16 16 15 15 15 15 16 16 15 14 13 12 12 13 15 16 16 15 15 16 17 18
6 6 6 6 6 5 5 5 5 5 5 6 6 6 6 5 5 7 10 10 10 9 9 8 7 7 8 9 10 10 10 9 9 9 9 10 10 10 11 11 12 13 15 16 17 17 18 18 18 18 18 19 19 20 19 19 19 19 18 18 18 17 17 16 16 16 16 15 15 15 15 15 15 15 14 13 12 12 12 13 13 13 13 14 16 17
6 5 5 6 6 6 6 6 5 5 5 5 6 7 7 6 6 6 8 10 10 10 10 9 8 7 6 7 7 7 8 7 7 6 6 7 7 7 7 8 8 9 10 11 12 13 15 16 16 17 17 18 18 19 19 19 18 18 18 18 18 17 17 17 16 16 16 16 16 16 15 15 15 15 15 14 14 13 13 13 13 13 13 14 15 16
7 6 6 7 7 7 6 7 7 7 6 6 6 7 7 7 6 7 8 9 9 9 8 10 9 7 5 6 6 6 6 5 5 5 6 5 5 5 6 6 7 7 8 9 10 10 11 12 12 13 15 16 17 18 18 18 18 18 18 18 17 17 17 17 16 16 16 16 16 16 16 16 15 15 15 15 15 15 14 14 14 14 15 15 16 17
7 7 8 8 7 7 7 7 8 8 7 7 7 7 7 8 7 7 8 10 9 8 8 9 10 8 6 5 5 5 5 5 5 6 6 6 5 4 5 6 6 6 7 7 8 9 11 10 9 9 11 13 15 16 16 17 18 18 18 18 17 17 17 16 16 16 16 16 16 16 16 16 16 16 16 16 16 16 16 15 15 15 16 16 16 17
6 7 8 8 8 7 7 7 8 8 8 8 8 8 8 9 8 8 8 9 9 8 8 8 9 8 6 5 5 5 5 5 5 6 7 8 6 5 5 6 7 7 7 7 7 8 8 8 9 10 10 12 14 16 16 17 17 18 18 17 17 17 17 17 17 17 17 17 17 16 16 16 16 16 16 16 16 16 16 16 16 16 16 16 17 17
5 6 7 8 8 8 7 7 8 8 8 8 8 8 8 8 8 8 7 8 8 7 7 7 8 8 6 5 5 4 5 5 6 6 7 8 8 6 6 6 7 7 7 7 7 7 7 8 8 9 10 13 15 16 17 17 18 18 18 17 17 17 17 17 17 17 17 17 17 17 17 16 16 16 16 16 16 16 16 16 16 16 16 16 16 17
5 5 6 7 8 8 7 7 7 7 8 8 8 8 7 7 7 7 7 7 8 8 7 7 7 7 7 7 5 4 4 5 6 7 7 9 9 7 6 7 7 8 7 7 7 6 6 7 8 9 12 15 16 17 17 18 18 18 18 18 17 17 18 18 18 18 18 18 18 17 17 16 16 16 15 16 16 16 16 16 16 15 15 16 16 16
6 5 6 7 7 7 7 7 7 7 8 8 8 8 9 8 8 8 8 8 8 8 8 8 8 8 8 9 8 6 4 5 6 7 7 9 9 8 6 7 8 9 8 7 6 6 6 6 8 11 14 16 17 17 17 17 18 18 18 18 18 18 18 18 18 18 18 18 18 18 17 17 16 16 15 15 16 16 16 16 16 16 15 15 16 16
7 6 6 6 7 7 7 7 6 7 8 8 8 9 9 9 9 9 9 8 8 8 7 8 9 9 9 10 9 7 4 4 5 6 7 8 9 8 6 7 8 9 9 8 6 5 5 5 7 9 12 15 16 17 17 17 17 18 18 18 18 18 18 17 17 18 18 18 18 18 17 17 17 16 16 16 15 15 15 16 16 16 16 16 16 16
8 7 6 6 7 7 7 6 6 7 8 9 8 8 8 8 8 9 9 9 9 8 6 7 8 9 8 9 9 7 5 5 7 7 6 7 8 8 7 6 7 8 10 9 8 7 5 5 5 6 8 12 15 17 18 18 18 18 18 18 18 18 17 17 17 17 17 18 18 17 17 17 17 16 16 16 16 15 15 16 16 16 17 16 16 16
8 8 8 7 7 8 9 9 10 10 10 9 8 7 7 7 7 8 8 8 8 8 8 9 9 8 7 9 10 9 6 6 7 7 6 7 9 9 7 6 7 8 9 8 8 7 6 5 5 6 9 12 15 17 18 19 19 19 19 18 18 18 18 17 17 17 17 17 17 17 17 17 17 17 16 16 16 16 16 16 16 16 17 17 17 17
8 9 9 8 9 9 10 10 10 10 9 8 8 8 6 6 7 8 8 7 7 8 8 8 8 8 7 8 10 10 8 7 7 6 6 8 9 9 6 6 7 8 9 8 8 8 7 6 6 7 9 13 16 17 18 19 20 20 20 19 18 18 17 17 16 16 16 16 16 17 17 17 17 17 17 16 16 16 16 16 16 16 16 17 17 17
8 9 9 9 9 9 9 9 9 8 7 7 7 7 7 7 8 8 7 6 7 7 7 8 8 8 8 9 9 9 8 6 5 5 5 7 8 8 6 6 8 10 11 9 9 9 9 8 7 7 7 12 15 17 18 19 20 20 20 19 18 17 16 15 14 14 14 15 15 16 16 17 17 17 17 16 16 16 16 16 16 16 16 16 17 17
8 9 9 9 10 11 12 12 12 12 10 9 9 8 9 10 10 10 8 7 7 7 7 8 9 9 7 8 8 7 6 6 5 4 4 5 6 7 6 5 6 8 10 9 9 9 9 9 8 7 7 10 14 17 18 19 19 19 20 19 18 16 15 13 12 11 12 12 13 14 15 16 16 16 16 16 16 16 17 17 17 16 16 16 16 17
15 15 15 17 19 22 24 25 24 23 22 18 14 10 9 9 9 8 7 6 6 7 8 9 9 8 6 6 6 6 5 5 4 4 3 4 5 6 6 5 5 6 8 8 8 8 9 9 8 7 6 8 11 14 17 18 19 19 19 18 17 15 14 12 10 9 10 10 11 12 14 15 15 16 16 16 16 16 17 17 17 17 16 16 16 16
23 25 27 28 28 28 28 28 28 29 30 27 23 19 14 10 8 7 7 6 6 7 8 8 8 7 6 6 6 6 5 4 4 3 3 3 4 5 6 5 5 5 7 7 7 8 10 10 9 7 6 6 8 10 15 17 18 19 19 17 16 14 12 11 10 10 10 10 11 11 13 14 15 16 16 16 16 16 16 17 17 16 16 15 14 13
24 25 26 27 27 28 27 27 27 27 27 28 29 27 20 12 9 8 7 6 6 7 7 7 8 7 7 7 7 6 5 5 4 3 2 3 4 5 5 5 5 5 5 6 7 8 10 10 9 7 7 6 6 7 11 14 16 17 17 16 15 13 11 11 11 11 12 12 12 12 12 13 14 15 16 16 16 16 16 16 16 15 14 13 10 9
20 22 24 25 26 26 25 24 23 23 25 26 27 25 19 11 8 7 7 6 7 7 8 8 8 8 7 7 7 6 5 5 5 4 2 3 4 5 5 5 4 4 4 5 5 6 7 7 7 6 6 6 5 5 7 10 12 13 14 15 14 12 10 10 12 13 14 14 14 14 14 14 15 15 15 16 16 16 15 15 14 13 11 10 9 8
13 15 17 19 20 19 18 15 15 17 20 22 23 21 15 9 6 5 6 6 7 8 8 8 8 7 7 6 6 5 5 5 4 3 2 2 3 4 4 4 4 3 3 4 4 5 5 5 5 5 5 5 5 4 4 5 6 7 8 10 10 10 10 10 11 13 15 15 16 16 16 16 16 16 16 16 16 16 15 15 13 10 7 7 8 8
11 12 13 13 12 10 9 9 9 11 14 16 16 14 11 7 5 5 5 6 6 7 8 8 7 7 6 6 5 5 4 4 4 3 1 2 3 3 3 4 4 3 2 3 4 4 4 4 4 4 5 6 5 4 4 4 4 4 4 4 5 6 7 8 9 11 13 14 15 16 17 18 18 18 17 17 16 16 16 15 13 9 7 7 7 8
11 11 11 10 9 7 7 7 7 8 8 9 9 8 8 7 6 5 5 5 6 6 7 7 7 7 7 6 6 6 5 5 5 5 4 3 3 3 2 3 3 3 2 2 3 3 3 3 3 4 5 5 6 5 5 5 4 3 3 3 3 4 5 5 6 7 9 11 13 15 16 18 19 19 19 18 17 17 17 16 14 10 7 7 7 8
10 9 8 8 8 7 7 7 7 7 7 6 6 6 6 6 6 6 5 5 5 5 6 7 7 7 7 8 7 7 6 6 7 7 7 5 3 3 2 3 3 4 3 2 2 2 2 2 2 3 3 4 4 5 5 5 4 3 3 3 3 3 4 4 4 5 5 7 9 11 14 16 17 18 19 19 18 18 17 17 16 13 9 8 7 7
10 9 9 9 8 8 7 7 7 6 6 6 6 6 6 5 6 6 6 5 5 5 6 6 7 7 8 8 8 7 6 6 7 8 7 5 4 3 3 3 3 3 3 2 2 2 2 2 2 3 3 3 3 4 4 5 5 4 3 2 2 3 3 3 3 3 4 5 6 7 9 11 13 15 16 17 17 17 17 18 18 16 15 11 8 7
10 10 9 8 8 8 8 7 7 6 6 6 6 6 6 5 5 5 6 6 5 5 5 6 6 7 7 7 7 7 6 6 6 7 7 5 4 4 3 3 3 2 2 2 2 2 2 2 3 4 4 4 4 4 4 4 4 4 3 3 2 3 3 3 3 3 3 4 5 5 6 7 8 9 11 13 14 15 16 17 18 18 18 15 11 8
9 9 8 8 7 7 7 7 7 6 6 6 5 5 5 5 5 5 5 6 6 6 6 6 6 6 6 6 6 7 7 7 7 8 7 6 4 4 3 3 3 3 3 3 3 3 3 3 3 4 4 5 5 4 4 3 3 4 4 3 3 3 3 3 3 3 3 4 5 5 6 6 6 7 7 10 12 14 15 17 18 19 20 18 15 11
8 8 7 6 6 7 7 6 6 5 5 5 5 5 5 5 5 5 6 6 6 6 6 7 7 7 7 6 6 7 8 8 8 8 8 6 5 4 4 4 4 3 3 4 4 4 4 4 4 4 4 4 4 4 4 4 3 4 4 3 3 4 4 3 3 3 4 5 6 6 6 6 6 6 6 8 10 11 13 15 17 18 20 19 17 14
8 7 6 6 5 5 6 5 5 5 5 5 5 6 6 6 6 6 6 6 6 6 6 6 6 7 9 10 10 9 9 10 10 10 9 7 5 5 5 5 5 4 4 4 4 4 4 4 5 5 4 4 5 5 5 4 4 3 3 3 4 4 4 4 3 3 4 5 6 7 7 7 7 7 6 6 6 7 8 10 12 15 18 18 17 16
7 6 6 5 5 5 5 5 5 5 6 6 6 6 6 6 6 6 6 6 6 6 6 6 6 7 8 10 11 11 11 10 10 10 9 6 5 4 5 5 5 4 4 3 4 4 4 4 4 4 4 5 5 5 4 4 3 3 4 4 4 3 4 3 3 3 4 4 5 7 7 7 7 6 6 5 5 5 6 6 8 10 12 12 12 13
7 6 6 6 6 6 6 7 7 7 7 8 8 8 7 7 6 6 5 5 6 6 6 6 6 6 7 8 9 9 9 8 8 8 7 5 4 4 4 4 4 4 4 4 4 4 4 5 5 5 5 5 5 5 4 4 4 4 4 4 3 3 3 3 3 3 3 4 5 6 6 6 6 6 6 6 5 5 5 5 6 7 8 8 8 8
9 8 8 7 7 7 8 8 8 8 8 8 8 7 7 6 5 4 4 5 5 5 5 6 6 6 6 6 7 7 8 8 8 7 6 6 6 5 4 5 5 4 4 4 4 4 4 5 5 5 5 5 6 6 6 5 5 6 6 5 5 4 4 4 4 3 3 3 4 5 5 5 5 5 6 6 6 6 5 5 5 6 7 7 7 7
10 9 8 8 8 7 7 8 8 8 8 8 7 6 6 5 4 4 4 4 5 5 5 5 5 6 7 7 7 7 7 7 7 7 7 7 7 6 5 5 5 4 4 4 4 4 4 4 5 5 6 5 5 6 6 5 5 5 5 5 6 6 6 5 4 3 2 2 3 3 3 2 2 3 4 5 5 5 5 5 6 7 7 7 6 7
9 8 8 8 7 7 8 8 8 7 6 6 5 5 5 4 4 4 5 5 5 6 6 6 6 6 7 8 8 8 7 7 7 7 7 7 7 6 6 6 6 5 4 5 5 5 4 5 5 6 5 5 5 6 7 6 5 4 4 5 6 6 4 3 2 2 1 1 2 2 2 2 2 3 4 4 4 4 5 6 7 8 7 6 6 7
8 8 7 7 7 7 7 7 6 5 5 5 5 5 5 5 5 5 5 5 5 6 6 5 5 6 7 8 8 8 8 7 7 7 7 8 7 7 6 7 7 6 4 5 5 6 6 6 5 5 5 5 5 6 7 6 5 4 4 5 6 6 5 3 2 2 2 2 2 1 1 2 2 3 3 4 4 4 3 4 5 6 6 6 6 6
7 7 7 7 7 7 7 7 7 6 6 7 7 6 6 5 5 5 4 5 5 5 5 5 5 6 7 7 7 7 8 7 7 7 6 7 8 8 7 6 6 6 6 5 5 5 6 6 6 5 4 4 5 6 7 7 6 5 4 5 6 6 6 4 3 3 2 2 2 1 1 1 2 2 3 3 4 4 3 2 3 4 5 5 5 6
7 7 7 6 6 7 9 9 8 8 8 8 7 6 5 5 5 5 5 5 5 5 5 5 5 6 7 8 8 8 8 8 8 8 6 6 5 5 5 5 5 5 5 6 6 6 6 6 6 6 5 5 5 6 6 6 6 5 5 5 5 5 4 3 3 3 3 3 2 2 0 1 1 1 2 3 3 3 4 3 1 2 4 5 5 6
7 7 7 7 7 7 8 8 8 8 8 8 7 7 6 5 5 5 5 5 5 5 6 6 6 7 8 8 8 8 9 9 9 9 8 7 6 5 5 5 5 6 5 6 6 7 7 7 7 6 6 5 5 5 5 5 5 5 5 4 3 3 3 3 3 3 3 3 3 2 1 1 0 1 2 2 2 2 3 3 3 1 2 3 4 5
7 7 7 7 7 7 8 7 7 7 8 8 7 7 6 6 6 7 6 5 5 6 7 7 7 7 8 8 8 8 9 9 9 9 8 8 7 6 6 5 5 5 6 6 7 8 8 8 8 8 7 6 5 5 5 5 4 4 3 3 2 2 3 3 4 3 3 3 3 3 2 1 2 2 2 2 1 2 2 3 3 3 3 1 3 4
7 7 7 7 7 7 8 7 7 8 8 8 8 7 6 7 8 8 6 5 5 5 6 7 7 8 8 8 8 9 9 9 9 8 8 7 7 6 6 6 5 5 5 5 6 6 7 8 8 9 8 7 6 6 6 5 4 3 3 3 3 3 3 4 4 4 3 3 3 3 2 2 3 3 2 2 1 1 1 2 2 3 3 3 2 2
7 7 7 7 7 7 7 7 8 8 8 8 8 7 7 6 6 5 5 5 5 5 5 6 7 8 8 9 9 9 9 8 8 7 7 6 6 5 5 5 5 5 5 5 4 4 4 5 6 7 9 9 8 7 7 6 5 4 3 3 3 3 4 4 5 4 3 3 3 3 3 3 3 3 3 2 2 1 0 1 1 2 2 3 3 3
8 7 7 7 7 7 7 8 8 8 8 8 8 7 7 7 6 5 5 5 5 5 5 6 7 8 8 9 9 10 9 8 8 7 6 5 5 5 6 6 5 5 6 5 5 4 3 3 3 4 6 8 9 9 7 6 5 4 4 3 3 3 4 4 5 4 4 3 3 3 3 3 3 3 3 3 2 1 1 1 1 1 1 1 2 3
Wind_Direction
314 318 320 326 324 320 318 326 326 324 321 321 321 320 320 321 320 319 319 317 314 312 309 305 302 298 292 284 278 273 269 265 261 258 254 251 249 247 246 247 248 250 253 255 258 260 262 264 266 267 268 268 268 268 266 265 264 262 261 259 257 255 254 253 251 248 243 237 231 226 221 219 219 221 223 223 222 221 218 215 213 212 212 212 213 215
315 315 316 324 323 319 314 323 325 323 320 319 318 318 319 318 316 314 314 311 310 309 308 306 305 302 299 295 287 280 275 270 265 260 256 252 249 247 245 245 246 247 249 251 253 256 258 261 263 265 266 266 266 265 264 264 263 262 262 259 256 254 253 253 253 251 248 243 238 232 226 222 220 220 222 223 224 224 221 217 214 212 211 211 212 212
317 314 314 320 320 317 313 318 319 318 316 315 314 315 315 314 312 311 310 309 309 308 307 306 305 303 300 298 291 285 281 276 270 264 258 253 250 247 245 245 244 245 246 247 249 252 255 258 260 262 263 264 264 263 263 262 262 261 260 258 254 251 250 250 251 251 251 248 245 240 234 228 223 220 221 223 225 225 223 218 213 211 213 213 213 211
315 313 315 318 315 312 310 314 314 314 313 311 310 310 311 310 308 307 307 307 306 305 304 303 302 301 299 297 293 289 285 280 275 269 262 257 252 249 246 244 244 244 244 245 247 249 252 255 258 260 261 262 262 262 262 262 261 260 259 256 253 249 246 246 247 249 250 251 250 247 242 236 230 226 224 224 225 225 224 218 213 210 214 216 216 213
314 313 316 317 313 310 310 311 311 310 309 307 306 306 306 304 303 303 304 304 303 303 302 301 301 299 298 297 294 290 286 282 278 273 267 262 257 252 248 246 244 243 243 244 245 247 250 254 256 259 260 261 261 261 261 261 260 259 257 255 252 248 245 244 244 245 247 249 251 250 247 242 237 232 229 226 226 225 224 219 213 208 210 214 215 213
313 313 315 314 311 310 312 311 310 310 308 305 303 302 301 300 300 301 301 302 301 301 300 300 299 298 297 295 293 290 287 283 280 276 272 267 262 258 253 249 246 243 242 243 245 247 250 254 256 259 260 261 261 261 261 260 259 257 256 253 250 248 246 244 243 243 243 246 248 249 248 244 240 236 232 228 226 225 223 219 213 206 205 208 210 211
309 310 313 311 309 308 309 308 309 311 310 308 307 306 304 302 301 299 299 299 299 298 298 296 296 295 294 293 292 290 288 284 281 277 274 270 267 263 259 254 249 245 242 243 245 248 251 254 257 259 260 261 261 260 260 258 257 256 254 251 249 246 244 243 242 241 241 242 243 245 245 243 239 236 232 228 225 223 222 219 214 207 202 203 206 209
307 308 310 309 308 308 306 306 310 314 315 315 314 313 312 308 304 300 298 296 295 295 295 294 292 291 290 291 291 291 289 286 283 279 275 272 269 266 262 257 252 247 243 243 244 247 250 253 256 258 260 261 261 260 258 257 255 253 251 249 246 244 243 242 241 240 239 239 240 241 241 239 237 233 230 226 224 221 220 218 214 208 202 202 205 209
304 306 307 307 308 309 308 306 311 317 320 317 316 315 314 310 306 302 300 296 294 294 294 293 293 291 290 291 291 292 292 289 285 281 277 272 268 265 262 258 253 248 244 243 243 245 247 250 253 255 258 259 259 259 257 255 253 251 248 246 244 242 241 240 239 238 237 237 237 237 237 236 234 231 227 224 221 220 219 218 215 210 204 204 207 210
299 301 303 303 304 305 306 306 309 314 317 312 309 308 308 307 305 304 302 300 299 299 298 297 298 299 300 300 300 299 299 296 291 287 282 276 269 264 260 258 254 249 244 243 242 242 244 246 249 252 254 256 257 257 256 254 251 248 245 243 241 240 239 238 237 237 236 235 235 235 235 234 232 229 225 222 219 217 217 216 214 211 207 208 211 214
299 300 300 301 301 300 298 300 303 308 310 305 301 299 297 300 303 305 305 304 306 307 304 302 302 304 306 307 307 308 307 303 299 295 291 283 276 269 264 260 256 252 248 245 243 242 241 243 245 248 251 253 254 255 255 253 250 246 243 240 238 237 237 236 236 236 236 235 235 234 234 232 231 228 225 221 218 216 214 213 211 209 208 212 216 219
304 304 302 301 302 302 298 297 298 301 304 302 301 300 298 299 302 304 304 304 306 307 304 301 299 299 301 303 305 306 305 304 305 306 305 299 294 289 282 276 269 262 257 252 247 244 242 241 243 245 248 250 252 253 253 252 249 245 241 238 236 235 235 236 236 236 236 235 235 234 234 232 231 229 226 224 221 218 215 212 209 207 209 213 218 222
306 305 303 303 303 305 304 304 304 304 304 304 303 302 302 304 304 301 298 298 299 301 300 297 295 292 293 296 298 299 300 302 307 313 315 313 313 313 309 301 294 285 277 269 262 255 246 243 241 242 244 247 249 251 251 251 248 244 240 237 235 234 234 235 236 236 236 236 235 234 234 233 232 230 229 227 225 222 220 216 213 211 210 213 218 222
309 308 305 305 306 307 308 307 306 305 305 305 302 300 300 302 300 297 293 292 293 295 295 293 292 292 293 292 292 293 298 304 309 313 314 314 317 321 320 314 310 305 297 288 280 272 264 253 246 242 241 243 246 249 249 249 247 244 240 237 235 234 234 235 236 237 237 236 236 235 234 233 232 231 230 228 226 224 222 219 216 214 213 214 216 220
310 310 307 306 307 308 309 308 306 305 305 305 304 301 299 298 297 296 294 293 294 296 295 292 291 292 293 293 293 296 301 309 313 315 314 311 313 318 323 319 317 315 311 303 296 289 283 272 262 251 243 241 241 243 244 246 245 242 240 236 235 234 234 236 237 237 238 238 237 236 235 233 232 231 230 228 226 224 222 220 217 215 214 214 215 218
307 306 305 304 305 305 306 307 306 305 306 306 305 303 301 300 300 299 297 296 298 300 298 297 297 297 294 294 296 302 312 316 316 316 316 309 309 314 322 315 312 310 311 309 307 305 301 292 282 272 260 246 241 239 238 242 242 241 238 236 234 234 234 236 237 238 239 239 238 237 236 234 233 231 230 228 226 224 222 219 217 215 213 212 213 215
300 300 300 300 300 301 302 302 302 302 304 304 303 302 300 301 302 303 300 299 301 302 301 303 303 302 300 298 298 306 324 323 319 316 314 306 304 307 314 309 304 302 304 303 303 305 309 305 298 289 278 261 248 240 238 238 238 238 237 236 234 234 234 235 236 238 238 239 239 238 237 235 234 232 231 229 227 225 222 219 217 215 213 211 211 212
293 293 294 295 296 297 300 301 300 299 299 299 299 300 299 300 302 303 301 299 299 299 300 300 299 298 300 298 297 307 332 321 314 310 308 302 300 301 306 301 296 294 294 292 293 297 304 304 303 299 293 271 259 249 241 237 236 237 237 236 235 235 234 235 236 237 238 239 239 239 238 236 235 233 232 231 228 226 223 220 218 215 213 211 210 210
289 289 289 291 292 293 295 296 296 295 295 296 298 300 300 300 299 299 295 294 293 291 291 290 288 288 290 290 292 299 321 312 306 303 301 298 297 298 300 295 292 290 289 286 286 288 293 295 297 298 298 288 278 266 253 244 240 238 237 237 237 237 236 236 237 237 238 239 239 239 238 237 236 235 234 232 230 228 225 222 219 217 215 213 212 210
289 287 287 289 290 290 289 289 289 290 291 293 295 296 295 296 294 291 288 288 286 284 283 282 282 281 282 284 286 290 303 305 299 295 293 293 293 294 295 293 292 290 288 285 283 282 283 286 291 296 298 296 291 284 275 263 254 247 244 242 241 240 240 239 238 238 238 239 239 239 238 237 236 235 234 233 232 231 228 224 221 219 217 215 213 212
288 286 283 285 287 288 287 287 287 287 288 289 289 287 286 287 286 284 283 284 284 282 280 277 277 278 280 282 284 286 289 289 289 289 291 291 289 288 290 290 289 287 286 284 282 281 278 278 281 287 293 293 293 291 288 279 271 263 256 252 249 247 245 243 241 240 239 238 238 238 238 237 237 236 235 234 233 232 230 226 223 220 218 216 215 213
285 283 282 281 280 281 283 284 284 283 282 281 279 277 277 279 279 279 280 281 282 282 281 279 280 282 285 284 284 284 280 277 277 281 288 286 283 282 286 287 286 284 283 284 284 284 279 273 271 274 279 282 283 284 283 281 278 274 267 262 257 253 250 247 244 242 240 239 239 238 238 237 237 236 235 234 233 233 231 229 225 222 219 217 216 214
276 278 281 279 277 277 278 279 279 277 275 272 269 268 269 272 274 276 278 277 278 279 281 282 283 283 282 281 280 279 273 267 267 272 278 278 279 281 286 286 285 283 282 284 287 287 283 277 270 268 270 272 272 272 272 273 273 272 270 266 262 258 254 251 248 245 243 241 240 239 238 238 237 236 234 233 232 232 232 231 228 224 221 218 217 215
272 274 276 275 273 273 275 276 276 275 272 270 269 269 269 270 272 273 273 270 270 272 275 276 276 275 274 274 275 274 270 263 261 263 269 273 277 281 284 283 282 283 283 286 287 288 286 282 275 266 262 262 262 263 263 265 266 267 268 267 264 260 256 253 249 247 245 243 242 241 240 239 238 236 235 233 232 231 231 231 229 227 224 220 218 216
279 277 275 275 275 275 276 276 277 278 279 277 275 274 275 276 277 277 274 272 271 272 272 272 272 272 273 275 277 277 274 266 258 255 261 271 277 279 279 278 279 282 284 287 288 288 287 285 280 272 262 256 254 254 255 257 259 261 263 264 262 260 258 254 251 249 247 246 245 243 242 241 239 238 236 234 232 231 231 230 229 228 226 223 220 218
291 289 288 287 286 286 286 286 286 287 287 286 284 282 283 283 282 280 276 275 276 276 275 274 274 275 277 278 280 282 283 273 261 250 253 269 277 279 279 277 277 280 284 287 288 288 287 286 283 277 266 255 249 247 247 249 252 254 256 257 258 258 258 258 256 255 253 251 249 247 245 243 241 239 237 235 233 231 230 229 229 228 226 224 222 219
294 293 292 291 290 290 290 290 290 290 290 290 291 291 291 290 287 283 279 280 281 281 279 281 283 286 287 285 285 285 286 282 272 259 251 267 275 278 277 277 278 281 285 286 286 285 285 284 282 278 270 258 249 243 241 242 244 246 248 248 249 252 256 260 264 265 263 260 257 253 250 246 243 240 238 236 233 231 229 228 227 227 225 224 223 221
294 293 292 291 290 289 289 289 290 290 291 291 291 292 292 290 287 284 283 286 287 285 282 284 286 288 288 286 284 283 282 280 276 269 257 263 269 273 276 278 279 281 284 284 283 282 281 280 279 276 270 259 248 240 238 239 240 240 240 238 239 241 247 257 264 268 268 267 265 262 258 253 248 244 239 236 233 230 228 227 226 225 224 222 222 222
294 293 291 289 288 287 287 288 288 289 289 290 291 292 292 288 283 281 283 288 289 286 282 281 281 281 282 282 281 279 276 274 271 267 253 256 265 271 276 279 279 279 280 282 282 281 278 277 276 274 270 260 249 239 238 238 238 237 236 233 231 231 236 247 257 263 267 268 268 267 265 261 256 250 244 238 234 230 226 224 223 223 222 220 220 220
296 295 292 289 287 285 285 284 284 285 287 290 292 293 291 285 278 275 280 284 285 283 282 281 280 282 285 289 288 284 276 272 271 266 248 257 267 275 283 286 286 285 285 289 290 288 285 284 284 285 288 285 278 263 247 244 243 241 239 234 232 231 232 239 249 257 263 265 267 267 267 265 261 256 250 243 236 230 225 221 219 220 221 219 217 216
305 303 298 294 291 289 286 283 282 284 288 292 294 293 289 281 271 266 269 272 274 276 279 281 283 286 290 292 292 290 286 283 283 285 285 273 276 283 294 296 296 297 297 302 302 302 303 306 311 319 328 324 315 301 283 271 263 258 256 252 249 246 241 240 245 253 259 262 265 265 266 265 262 259 254 247 239 231 224 219 216 216 222 219 216 212
308 307 304 303 302 299 293 290 289 289 291 292 291 287 280 273 267 261 260 262 265 269 273 277 280 283 285 285 284 285 286 287 289 290 290 281 279 280 282 287 290 290 286 282 285 293 306 313 323 331 336 327 319 312 305 295 285 277 273 276 276 269 257 250 248 251 257 261 263 264 265 263 261 258 255 249 242 233 225 218 215 215 220 220 216 210
308 307 305 304 302 298 293 291 290 290 289 287 284 281 278 275 272 268 263 262 266 271 274 277 280 281 282 279 278 277 279 283 288 290 289 283 277 272 262 269 276 277 271 255 248 251 265 286 301 310 313 310 309 309 309 306 301 294 280 277 277 275 269 262 256 253 256 261 264 265 265 262 259 256 253 248 242 235 226 219 216 215 219 222 217 209
306 304 301 300 298 295 292 289 286 285 285 284 283 283 283 282 280 278 275 271 271 274 275 277 279 280 281 279 278 277 279 283 291 295 297 289 281 275 266 262 265 267 265 256 250 248 253 270 288 298 301 300 299 299 304 307 309 310 304 291 283 281 279 273 265 259 260 262 265 266 265 262 258 253 249 245 240 234 227 220 216 216 219 222 218 207
303 301 299 298 296 294 291 287 285 284 285 286 286 287 287 287 286 284 281 279 276 274 271 271 273 275 277 279 281 283 287 291 297 300 300 293 286 278 271 264 262 266 269 274 278 282 286 287 295 301 305 305 303 300 297 298 304 310 313 304 292 285 285 284 282 277 273 269 267 267 266 264 258 251 244 240 236 232 226 221 218 217 219 221 218 209
297 295 294 294 293 293 291 289 288 289 289 289 288 287 286 286 285 284 282 281 280 278 275 273 271 272 273 277 281 285 288 290 292 293 291 288 286 286 284 281 284 288 292 298 301 305 306 302 300 299 301 300 300 299 296 296 304 311 315 310 301 291 285 284 283 281 278 272 270 269 269 268 263 254 244 234 231 228 225 222 220 219 220 219 216 209
291 290 290 290 291 292 292 291 291 290 289 288 287 285 284 283 283 282 282 281 280 280 279 279 278 276 275 273 272 274 278 282 285 285 284 282 282 285 288 288 287 286 286 291 296 299 301 300 298 296 293 290 291 294 297 304 312 317 315 309 303 297 289 283 277 272 270 268 268 268 269 270 269 263 254 236 229 225 224 222 220 220 219 218 214 207
289 289 289 289 291 294 296 296 294 291 288 287 287 286 283 281 279 279 281 281 281 281 282 283 283 282 280 278 275 273 274 277 279 281 281 278 276 277 279 282 282 277 267 268 273 280 286 290 292 292 289 283 281 283 289 297 303 305 302 299 296 292 285 278 269 261 259 262 264 265 265 266 267 266 263 247 233 224 221 220 220 219 217 216 211 203
293 293 293 296 302 308 311 308 303 299 295 291 289 287 284 281 280 279 279 281 283 283 283 283 284 285 284 283 281 279 278 278 279 280 280 274 266 261 264 271 275 274 267 259 256 259 265 272 275 279 281 282 283 283 285 288 291 295 299 300 298 289 277 267 255 248 247 254 258 260 260 259 259 259 259 252 240 228 220 217 215 213 212 213 208 199
310 309 309 314 320 324 323 316 310 305 302 297 294 292 288 287 285 284 283 284 286 287 285 283 283 282 281 280 280 279 279 278 279 279 279 272 261 253 253 263 271 275 272 262 253 248 249 257 262 267 270 274 279 282 283 283 285 292 300 301 299 290 271 255 242 235 235 243 249 252 253 251 251 250 250 247 241 233 224 217 211 206 203 203 199 190
319 318 317 321 323 322 317 313 309 305 302 300 298 295 291 290 289 290 293 294 295 297 298 298 297 295 291 286 281 278 276 275 275 275 274 270 266 262 262 266 272 276 276 267 257 247 243 251 257 263 264 267 271 274 275 275 279 285 292 293 291 286 274 256 241 231 231 242 246 247 250 252 253 253 252 246 241 236 228 220 212 205 201 198 192 183
316 315 315 317 317 316 312 308 304 301 300 300 298 296 293 293 294 297 303 305 306 308 310 312 313 311 308 303 297 291 285 281 277 275 275 273 271 270 272 276 280 284 288 283 274 261 247 247 252 258 262 265 269 271 271 269 269 271 275 283 287 287 282 267 249 230 223 254 266 271 279 290 296 291 282 265 253 242 230 222 212 205 199 194 188 182
311 310 311 312 311 308 305 303 301 300 302 303 304 304 303 304 306 308 308 307 308 309 311 312 312 311 308 305 303 302 298 292 286 282 279 276 274 274 278 281 284 288 292 293 289 280 262 251 250 253 257 260 263 267 270 268 264 259 259 270 277 281 282 276 271 264 245 275 291 313 346 358 353 339 323 304 285 259 236 222 213 206 200 190 182 177
305 306 308 309 309 308 306 303 302 302 307 312 315 316 314 311 308 307 307 306 306 307 309 309 309 306 303 301 301 302 302 299 294 288 281 277 275 273 276 279 282 283 283 285 287 287 285 272 262 255 253 255 258 262 266 266 263 258 250 257 262 266 268 274 282 288 289 282 287 305 342 9 6 352 335 323 313 297 256 225 212 204 194 181 173 170
300 303 305 308 311 312 311 309 310 313 319 320 319 317 312 308 307 306 306 305 305 305 305 307 307 306 303 302 302 303 303 302 300 296 288 281 277 274 272 273 276 278 278 274 274 277 282 279 276 270 262 257 256 258 262 265 266 263 255 248 251 255 261 269 275 276 272 272 271 276 330 31 18 355 331 324 322 320 312 264 209 189 175 167 165 165
297 300 304 307 309 310 310 312 314 317 318 316 313 309 306 306 305 305 303 302 302 303 303 304 304 303 301 302 304 304 304 303 302 302 300 295 288 281 273 267 266 268 271 270 268 266 266 269 273 274 272 264 259 258 259 261 262 261 257 246 246 252 263 272 277 277 277 278 276 268 226 75 42 343 311 311 316 322 325 333 316 169 158 157 159 161
295 299 302 304 305 306 307 310 311 312 310 307 305 304 304 305 305 304 302 301 301 302 303 303 302 300 299 300 300 301 300 300 301 302 304 304 303 300 293 282 272 266 265 266 267 265 262 261 262 263 265 265 265 264 263 260 259 258 255 251 251 259 276 283 281 277 277 279 278 271 233 119 129 264 281 296 310 323 330 340 350 18 113 146 154 157
295 297 299 301 302 302 303 304 304 304 303 302 302 303 303 304 306 307 305 305 304 304 304 304 303 300 297 296 294 293 292 293 294 297 301 303 305 305 304 299 291 282 274 270 267 265 262 257 253 250 249 253 259 265 268 266 266 267 271 274 280 285 287 288 283 275 268 269 268 261 219 187 193 217 243 272 302 331 348 349 352 360 21 82 135 148
294 295 296 297 297 297 298 299 300 299 299 300 301 303 304 305 307 308 307 306 305 304 303 302 301 299 296 294 292 290 288 288 289 292 295 297 299 301 302 301 298 295 289 282 275 269 265 258 249 242 237 238 246 256 263 266 269 274 285 290 292 290 285 283 280 276 267 263 259 252 232 211 201 200 206 228 255 310 15 13 7 4 9 25 64 111
293 292 292 292 293 293 294 295 296 296 296 297 300 303 306 308 309 309 306 303 301 300 298 297 296 295 293 293 293 292 291 290 290 291 291 293 295 296 296 296 297 298 297 295 289 282 275 266 254 242 232 229 232 240 253 259 263 267 271 273 271 269 269 271 273 272 265 257 249 240 234 226 214 204 200 209 215 211 95 66 41 23 13 24 44 65
293 291 290 290 291 291 292 292 292 293 293 296 300 304 308 310 310 308 305 303 301 298 295 293 290 288 288 289 290 291 291 291 291 291 290 292 293 294 294 297 299 302 303 302 299 295 285 278 271 259 244 234 227 224 234 244 251 255 257 255 252 251 252 259 262 264 261 251 239 230 229 233 227 215 203 204 203 196 175 148 125 95 52 54 62 69